Change the Weather History Date:

Tuesday, March 5, 2013

  Actual Average Record
Temperature  
Mean Temperature 28 °F 34 °F  
Max Temperature 37 °F 46 °F 78 °F (1910)
Min Temperature 19 °F 22 °F -14 °F (1978)
Degree Days  
Heating Degree Days 37 31  
Month to date heating degree days 160  
Since 1 July heating degree days 5086  
Cooling Degree Days 0 0  
Month to date cooling degree days 0  
Year to date cooling degree days 0  
Moisture  
Dew Point 13 °F    
Average Humidity 56    
Maximum Humidity 77    
Minimum Humidity 35    
Precipitation  
Precipitation 0.00 in - 0.75 in (1981)
Sea Level Pressure  
Sea Level Pressure 30.26 in    
Wind  
Wind Speed 18 mph (NW)    
Max Wind Speed 29 mph    
Max Gust Speed 47 mph    
Visibility 10 miles    
Events      
T = Trace of Precipitation, MM = Missing Value Source: NWS Daily Summary

Daily Weather History Graph

Daily Weather History Graph

Search for Another Location

Airport or City:

Trip Planner

Search our weather history database for the weather conditions in past years. The results will help you decide how hot, cold, wet, or windy it might be!

Date:

Astronomy

Mar. 05, 2013 Rise Set
Actual Time 7:03 AM CST 6:32 PM CST
Civil Twilight 6:35 AM CST 6:59 PM CST
Nautical Twilight 6:04 AM CST 7:31 PM CST
Astronomical Twilight 5:32 AM CST 8:03 PM CST
Moon 2:18 AM CST (3/5) 12:11 PM CST (3/5)
Length of Visible Light 12h 23m
Length of Day
11h 28m
Last Quarter, 40% of the Moon is Illuminated
Mar 5
Last Quarter
Mar 11
New
Mar 19
First Quarter
Mar 27
Full
Apr 2
Last Quarter

Hourly Weather History & Observations

Time (CST) Temp. Windchill Dew Point Humidity Pressure Visibility Wind Dir Wind Speed Gust Speed Precip Events Conditions
12:15 AM 26.6 °F 13.4 °F 10.4 °F 51% 30.13 in 10.0 mi NW 18.4 mph 24.2 mph N/A   Partly Cloudy
1:35 AM 24.8 °F 11.5 °F 10.4 °F 54% 30.14 in 10.0 mi NW 17.3 mph 25.3 mph N/A   Clear
1:55 AM 24.8 °F 12.4 °F 12.2 °F 59% 30.14 in 10.0 mi NW 15.0 mph - N/A   Clear
2:15 AM 24.8 °F 12.4 °F 12.2 °F 59% 30.14 in 10.0 mi WNW 15.0 mph 18.4 mph N/A   Clear
2:35 AM 24.8 °F 12.9 °F 12.2 °F 59% 30.14 in 10.0 mi NW 13.8 mph - N/A   Partly Cloudy
2:55 AM 24.8 °F 11.5 °F 12.2 °F 59% 30.14 in 10.0 mi WNW 17.3 mph - N/A   Partly Cloudy
3:15 AM 24.8 °F 9.6 °F 12.2 °F 59% 30.14 in 10.0 mi WNW 23.0 mph 28.8 mph N/A   Clear
3:35 AM 24.8 °F 8.1 °F 10.4 °F 54% 30.14 in 10.0 mi WNW 28.8 mph 40.3 mph N/A   Partly Cloudy
3:55 AM 24.8 °F 9.0 °F 10.4 °F 54% 30.14 in 10.0 mi WNW 25.3 mph 41.4 mph N/A   Clear
4:15 AM 24.8 °F 9.0 °F 10.4 °F 54% 30.14 in 10.0 mi WNW 25.3 mph 33.4 mph N/A   Clear
4:35 AM 23.0 °F 5.7 °F 10.4 °F 59% 30.14 in 10.0 mi NW 28.8 mph 35.7 mph N/A   Clear
4:55 AM 24.8 °F 8.1 °F 10.4 °F 54% 30.15 in 10.0 mi WNW 28.8 mph 47.2 mph N/A   Clear
5:15 AM 23.0 °F 6.3 °F 8.6 °F 54% 30.15 in 10.0 mi NW 26.5 mph 36.8 mph N/A   Clear
5:35 AM 23.0 °F 7.2 °F 10.4 °F 59% 30.18 in 10.0 mi WNW 23.0 mph 28.8 mph N/A   Clear
5:55 AM 21.2 °F 4.9 °F 10.4 °F 63% 30.19 in 10.0 mi WNW 23.0 mph 31.1 mph N/A   Clear
6:15 AM 21.2 °F 3.9 °F 10.4 °F 63% 30.19 in 10.0 mi WNW 26.5 mph 34.5 mph N/A   Clear
6:35 AM 21.2 °F 5.2 °F 10.4 °F 63% 30.20 in 10.0 mi WNW 21.9 mph 31.1 mph N/A   Clear
6:55 AM 21.2 °F 5.2 °F 10.4 °F 63% 30.21 in 10.0 mi WNW 21.9 mph 35.7 mph N/A   Clear
7:15 AM 21.2 °F 4.5 °F 10.4 °F 63% 30.21 in 10.0 mi WNW 24.2 mph 34.5 mph N/A   Clear
7:35 AM 21.2 °F 5.6 °F 10.4 °F 63% 30.21 in 10.0 mi WNW 20.7 mph 31.1 mph N/A   Clear
7:55 AM 21.2 °F 4.9 °F 10.4 °F 63% 30.22 in 10.0 mi WNW 23.0 mph 33.4 mph N/A   Clear
8:15 AM 23.0 °F 7.2 °F 10.4 °F 59% 30.23 in 10.0 mi WNW 23.0 mph 34.5 mph N/A   Clear
8:35 AM 24.8 °F 9.0 °F 10.4 °F 54% 30.24 in 10.0 mi WNW 25.3 mph 34.5 mph N/A   Clear
8:55 AM 24.8 °F 8.4 °F 12.2 °F 59% 30.24 in 10.0 mi WNW 27.6 mph 34.5 mph N/A   Clear
9:15 AM 24.8 °F 8.7 °F 12.2 °F 59% 30.25 in 10.0 mi NW 26.5 mph 36.8 mph N/A   Clear
9:35 AM 26.6 °F 11.4 °F 12.2 °F 55% 30.26 in 10.0 mi NW 25.3 mph 34.5 mph N/A   Clear
9:55 AM 26.6 °F 11.4 °F 10.4 °F 51% 30.26 in 10.0 mi WNW 25.3 mph 36.8 mph N/A   Clear
10:15 AM 28.4 °F 14.1 °F 12.2 °F 51% 30.27 in 10.0 mi NW 24.2 mph 34.5 mph N/A   Clear
10:35 AM 28.4 °F 12.7 °F 12.2 °F 51% 30.27 in 10.0 mi NW 29.9 mph 41.4 mph N/A   Clear
10:55 AM 28.4 °F 13.8 °F 12.2 °F 51% 30.28 in 10.0 mi NW 25.3 mph 36.8 mph N/A   Clear
11:15 AM 30.2 °F 15.9 °F 12.2 °F 47% 30.28 in 10.0 mi NW 26.5 mph 33.4 mph N/A   Clear
11:35 AM 30.2 °F 16.8 °F 12.2 °F 47% 30.29 in 10.0 mi NW 23.0 mph 32.2 mph N/A   Clear
11:55 AM 32.0 °F 18.4 °F 12.2 °F 44% 30.29 in 10.0 mi NW 26.5 mph 33.4 mph N/A   Clear
12:15 PM 32.0 °F 20.1 °F 12.2 °F 44% 30.29 in 10.0 mi WNW 19.6 mph 26.5 mph N/A   Clear
12:35 PM 33.8 °F 22.2 °F 12.2 °F 41% 30.30 in 10.0 mi NW 20.7 mph 27.6 mph N/A   Clear
12:55 PM 33.8 °F 22.8 °F 12.2 °F 41% 30.30 in 10.0 mi NW 18.4 mph 21.9 mph N/A   Clear
1:15 PM 35.6 °F 25.2 °F 12.2 °F 38% 30.30 in 10.0 mi NW 18.4 mph 24.2 mph N/A   Clear
1:35 PM 35.6 °F 24.2 °F 12.2 °F 38% 30.29 in 10.0 mi NW 21.9 mph 27.6 mph N/A   Clear
1:55 PM 35.6 °F 25.5 °F 14.0 °F 41% 30.29 in 10.0 mi NNW 17.3 mph 26.5 mph N/A   Clear
2:15 PM 37.4 °F 28.5 °F 12.2 °F 36% 30.29 in 10.0 mi NW 15.0 mph 27.6 mph N/A   Clear
2:35 PM 37.4 °F 26.9 °F 12.2 °F 36% 30.29 in 10.0 mi NW 20.7 mph 27.6 mph N/A   Clear
2:55 PM 37.4 °F 29.3 °F 12.2 °F 36% 30.28 in 10.0 mi NW 12.7 mph 27.6 mph N/A   Clear
3:15 PM 37.4 °F 26.6 °F 14.0 °F 38% 30.29 in 10.0 mi NNW 21.9 mph 25.3 mph N/A   Clear
3:35 PM 37.4 °F 26.9 °F 12.2 °F 36% 30.28 in 10.0 mi NNW 20.7 mph 24.2 mph N/A   Clear
3:55 PM 37.4 °F 28.9 °F 12.2 °F 36% 30.28 in 10.0 mi NNW 13.8 mph 24.2 mph N/A   Clear
4:15 PM 37.4 °F 28.9 °F 12.2 °F 36% 30.29 in 10.0 mi NW 13.8 mph - N/A   Clear
4:35 PM 37.4 °F 27.8 °F 12.2 °F 36% 30.29 in 10.0 mi NNW 17.3 mph 23.0 mph N/A   Clear
4:55 PM 37.4 °F 29.3 °F 12.2 °F 36% 30.30 in 10.0 mi NW 12.7 mph 20.7 mph N/A   Clear
5:15 PM 35.6 °F 25.2 °F 12.2 °F 38% 30.30 in 10.0 mi NNW 18.4 mph - N/A   Clear
5:35 PM 35.6 °F 26.6 °F 12.2 °F 38% 30.30 in 10.0 mi North 13.8 mph - N/A   Clear
5:55 PM 35.6 °F 26.2 °F 12.2 °F 38% 30.30 in 10.0 mi NNW 15.0 mph - N/A   Clear
6:15 PM 33.8 °F 25.3 °F 14.0 °F 44% 30.31 in 10.0 mi North 11.5 mph - N/A   Clear
6:35 PM 30.2 °F 21.3 °F 14.0 °F 51% 30.31 in 10.0 mi North 10.4 mph - N/A   Clear
6:55 PM 28.4 °F 19.1 °F 14.0 °F 55% 30.32 in 10.0 mi North 10.4 mph - N/A   Clear
7:15 PM 26.6 °F 18.2 °F 15.8 °F 64% 30.32 in 10.0 mi North 8.1 mph - N/A   Clear
7:35 PM 28.4 °F 22.2 °F 15.8 °F 59% 30.34 in 10.0 mi NNW 5.8 mph - N/A   Clear
7:55 PM 28.4 °F 21.2 °F 17.6 °F 64% 30.34 in 10.0 mi NNW 6.9 mph - N/A   Clear
8:15 PM 26.6 °F 18.2 °F 15.8 °F 64% 30.34 in 10.0 mi NNW 8.1 mph - N/A   Clear
8:35 PM 24.8 °F 17.9 °F 15.8 °F 69% 30.33 in 10.0 mi North 5.8 mph - N/A   Clear
8:55 PM 21.2 °F 10.9 °F 15.8 °F 80% 30.33 in 10.0 mi North 9.2 mph - N/A   Clear
9:15 PM 21.2 °F 11.7 °F 15.8 °F 80% 30.34 in 10.0 mi North 8.1 mph - N/A   Clear
9:35 PM 24.8 °F 19.1 °F 15.8 °F 69% 30.35 in 10.0 mi NNW 4.6 mph - N/A   Clear
9:55 PM 24.8 °F 19.1 °F 15.8 °F 69% 30.36 in 10.0 mi WNW 4.6 mph - N/A   Clear
10:15 PM 24.8 °F 20.5 °F 17.6 °F 74% 30.36 in 10.0 mi NW 3.5 mph - N/A   Clear
10:35 PM 24.8 °F 19.1 °F 15.8 °F 69% 30.36 in 10.0 mi NNW 4.6 mph - N/A   Clear
10:55 PM 23.0 °F 18.4 °F 14.0 °F 68% 30.37 in 10.0 mi NNW 3.5 mph - N/A   Clear
11:15 PM 21.2 °F 14.9 °F 15.8 °F 80% 30.36 in 10.0 mi NW 4.6 mph - N/A   Clear
11:35 PM 19.4 °F 12.8 °F 15.8 °F 86% 30.36 in 10.0 mi North 4.6 mph - N/A   Clear
11:55 PM 19.4 °F 12.8 °F 15.8 °F 86% 30.36 in 10.0 mi North 4.6 mph - N/A   Clear